Flag for Canada Weather past 2 weeks in Richmond, British Columbia, Canada

Now
75 °F

Sunny.


Feels Like: 77 °F
Forecast: 61 / 77 °F
Wind: 7 mph from Southwest

Location: Vancouver International Air-Port

Current Time: Jul 29, 2014 at 4:19:36 PM

Latest Report: Jul 29, 2014 at 3:00 PM


Visibility: 30 mi

Pressure: 30.09 "Hg

Humidity: 61%

Dew point: 61 °F

Location of RichmondLocation

Historic Weather in Richmond — Graph

°F

Richmond temperature yesterday

Maximum temperature yesterday: 75 °F (at 2:00 PM)
Minimum temperature yesterday: 59 °F (at 3:00 AM)
Average temperature yesterday: 68 °F

Past Weeks' High & Low Weather Summary

 TemperatureHumidityPressure
High81 °F (Jul 14, 7:00 PM)100% (Jul 24, 3:00 AM)30.21 "Hg (Jul 24, 3:00 AM)
Low54 °F (Jul 25, 6:00 AM)45% (Jul 14, 7:00 PM)29.88 "Hg (Jul 19, 8:00 PM)
Average65 °F74%30.04 "Hg
* Reported Jul 14 3:00 PM — Jul 29 3:00 PM, Richmond, Weather by CustomWeather, © 2014

Note: Actual official high and low records may vary slightly from our data, if they occured in-between our weather recording intervals... More about our weather records

Advertising

Richmond weather history for previous 24 hours

 ConditionsComfort  
Time TempWeatherWind HumidityBarometerVisibility
3:00 PM
Jul 29
75 °FSunny.7 mph61%30.09 "Hg30 mi
2:00 PM75 °FSunny.8 mph61%30.11 "Hg30 mi
1:00 PM75 °FSunny.7 mph57%30.12 "Hg30 mi
12:00 PM73 °FSunny.8 mph65%30.13 "Hg30 mi
11:00 AM72 °FSunny.8 mph69%30.13 "Hg30 mi
10:00 AM70 °FSunny.7 mph73%30.13 "Hg30 mi
9:00 AM68 °FSunny.5 mph69%30.13 "Hg30 mi
8:00 AM66 °FSunny.2 mph73%30.13 "Hg30 mi
7:00 AM63 °FSunny.3 mph77%30.12 "Hg30 mi
6:00 AM61 °FClear.3 mph77%30.11 "Hg15 mi
5:00 AM59 °FClear.5 mph82%30.11 "Hg20 mi
4:00 AM61 °FClear.3 mph88%30.09 "Hg15 mi
3:00 AM63 °FClear.5 mph83%30.08 "Hg15 mi
2:00 AM61 °FClear.7 mph88%30.07 "Hg15 mi
1:00 AM64 °FClear.6 mph83%30.07 "Hg15 mi
12:00 AM66 °FClear.6 mph73%30.06 "Hg15 mi
11:00 PM
Jul 28
68 °FClear.7 mph69%30.06 "Hg20 mi
10:00 PM68 °FPassing clouds.12 mph73%30.06 "Hg30 mi
9:00 PM75 °FPassing clouds.No wind57%30.04 "Hg30 mi
8:00 PM75 °FSunny.2 mph57%30.04 "Hg30 mi
7:00 PM73 °FSunny.3 mph61%30.05 "Hg30 mi
6:00 PM73 °FPassing clouds.5 mph69%30.06 "Hg30 mi
5:00 PM73 °FPassing clouds.7 mph69%30.07 "Hg30 mi
4:00 PM73 °FPassing clouds.7 mph74%30.08 "Hg30 mi
Weather by CustomWeather, © 2014

See weather overviewHow to use our weather pages